[[{"header":{"parameterUnit":"m.s-1","parameterCategory":1,"la1":30.2991,"la2":30.254,"lo1":-89.0895,"lo2":-89.0444,"dy":0.0017,"dx":0.0017,"nx":28,"ny":28,"refTime":"2025-07-11T21:00:00:Z","depth":0,"parameterNumber":2,"parameterNumberName":"U-component_of_WINDS"},"data":[0,0,0,0,0,0,0,0,0,0,0,0,0,0,0,0,0,0,0,0,0,0,0,0,0,0,0,0,0,0,0,0,0,0,0,0,0,0,0,0,0,0,0,0,0,0,0,0,0,0,0,0,0,0,0,0,0,0,3.1149,3.115,0,3.1301,3.1302,3.1304,3.1266,3.1263,3.126,3.1257,3.1417,3.1424,3.1431,0,0,0,0,0,0,0,0,0,0,0,0,0,3.0829,3.0835,3.1149,3.1151,3.1152,3.13,3.1302,3.1304,3.1267,3.1263,3.1259,3.1256,3.1415,3.1423,3.1431,0,0,0,0,0,0,0,0,0,0,0,0,0,3.0973,3.0837,3.1148,3.1151,3.1153,3.13,3.1302,3.1305,3.1267,3.1263,3.1259,3.1254,3.1412,3.1422,3.1432,3.1587,0,0,3.1465,3.1469,0,0,0,0,0,0,0,0,3.0965,3.0985,3.1149,3.1151,3.1154,3.126,3.1248,3.14,3.1269,3.1224,3.1257,3.1252,3.1368,3.1382,3.1421,3.1594,3.1601,3.1465,3.1472,3.1476,3.1479,0,0,0,0,0,0,0,3.0955,3.0978,3.1209,3.1151,3.1154,3.1146,3.1162,3.1277,3.132,3.1228,3.1225,3.1244,3.1369,3.1411,3.1424,3.1603,3.1465,3.1475,3.1481,3.1485,3.191,3.1915,0,0,0,0,0,0,3.0943,3.097,3.1204,3.1213,3.1046,3.1155,3.1173,3.123,3.1318,3.1327,3.1247,3.1241,3.1395,3.1412,3.143,3.1615,3.1476,3.1486,3.1492,3.1905,3.1911,3.1916,0,0,0,0,0,0,3.0936,3.0964,3.1198,3.1091,3.112,3.1166,3.1231,3.1236,3.1277,3.1333,3.1341,3.1282,3.1392,3.1415,3.1547,3.162,3.1491,3.15,3.1899,3.1907,3.1914,3.1988,0,0,0,0,0,0,3.0927,3.0962,3.102,3.1093,3.1126,3.1313,3.1235,3.1242,3.1295,3.1289,3.1367,3.1376,3.139,3.1532,3.1558,3.1632,3.1509,3.1893,3.1903,3.1911,3.198,3.1997,3.2013,0,0,0,0,0,3.0916,3.1036,3.1023,3.1052,3.12,3.1317,3.1336,3.1349,3.1301,3.1361,3.1396,3.1374,3.1608,3.1546,3.1575,3.1654,3.1888,3.19,3.1911,3.1972,3.1994,3.2012,0,0,0,0,0,0,3.0973,3.1046,3.1032,3.118,3.1242,3.131,3.1386,3.1371,3.145,3.1441,3.1454,3.1472,3.1607,3.1644,3.1573,3.1807,3.1741,3.1759,3.1778,3.1799,3.1816,3.1804,3.1517,0,0,0,0,0,3.1002,3.109,3.1149,3.1274,3.1306,3.134,3.1392,3.1396,3.1462,3.1488,3.1534,3.1599,3.1687,3.1745,3.183,3.1984,3.2001,3.2053,3.2069,3.2083,3.2098,3.2182,3.2205,3.1953,3.1953,3.1953,0,0,3.1065,3.1116,3.117,3.1287,3.1335,3.1427,3.1363,3.1463,3.153,3.1504,3.1631,3.1667,3.1741,3.1885,3.1951,3.1919,3.2171,3.2097,3.2107,3.2115,3.2196,3.2219,3.224,3.1961,3.1959,3.1958,0,0,3.1225,3.1272,3.138,3.143,3.1504,3.1526,3.1552,3.1622,3.1644,3.1772,3.1754,3.1835,3.1987,3.204,3.2087,3.2266,3.2248,3.2293,3.238,3.2462,3.2481,3.2499,3.2562,3.2585,3.2308,3.2308,3.2309,0,3.1294,3.1429,3.1438,3.1539,3.1591,3.1569,3.1679,3.1727,3.1826,3.1862,3.1825,3.2015,3.2063,3.2219,3.2262,3.2301,3.2332,3.2285,3.2478,3.2495,3.2512,3.2573,3.2596,3.2313,3.2313,3.2312,3.2312,0,3.151,3.1604,3.1683,3.1776,3.1837,3.1942,3.1968,3.2028,3.2027,3.2053,3.2183,3.224,3.2335,3.2372,3.2373,3.2528,3.2506,3.2474,3.2408,3.2541,3.2598,3.2621,3.232,3.2319,3.2317,3.2316,0,0,3.1712,3.1807,3.1836,3.1878,3.1957,3.2031,3.2135,3.2226,3.2277,3.2346,3.2433,3.2562,3.2532,3.2585,3.2591,3.2663,3.28,3.2621,3.2623,3.2652,3.2974,3.2998,3.3025,3.2788,3.2793,3.2796,3.2968,0,3.1878,3.206,3.207,3.2235,3.2322,3.2302,3.2393,3.2452,3.2479,3.2557,3.2587,3.2678,3.2631,3.2663,3.2733,3.2768,3.2865,3.2756,3.2871,3.2874,3.2852,3.3055,3.3081,3.3239,3.299,3.2994,3.2997,0,3.2098,3.217,3.2343,3.2409,3.2446,3.2527,3.2611,3.2686,3.2753,3.2767,3.2826,3.2822,3.2929,3.2859,3.3007,3.2933,3.298,3.3005,3.3011,3.3022,3.2944,3.3071,3.3291,3.3314,3.3032,3.3029,3.3027,0,3.2226,3.2368,3.249,3.2526,3.2606,3.2663,3.27,3.2761,3.2815,3.2889,3.2924,3.301,3.3057,3.3124,3.3144,3.3091,3.3291,3.3223,3.3306,3.3306,3.335,3.3347,3.358,3.3381,3.338,3.338,3.3379,0,3.2412,3.2518,3.2548,3.2623,3.2742,3.2753,3.2871,3.2904,3.2959,3.304,3.3028,3.3105,3.3126,3.3207,3.3223,3.3342,3.3364,3.3379,3.3382,3.338,3.3378,3.3411,3.3401,3.3386,3.3385,3.3384,3.3382,0,3.2576,3.26,3.2731,3.2795,3.2814,3.2899,3.2954,3.3026,3.3051,3.3154,3.3179,3.3218,3.3313,3.3338,3.3452,3.3462,3.3603,3.3596,3.358,3.358,3.3662,3.3654,3.3924,3.396,3.3738,3.374,3.3742,0,3.2692,3.2774,3.2846,3.2898,3.2936,3.3022,3.3076,3.3091,3.3148,3.3229,3.3291,3.3384,3.3458,3.361,3.365,3.3736,3.3731,3.382,3.3744,3.3739,3.3732,3.3727,3.3735,3.3834,3.3837,3.3838,3.384,0,3.2896,3.2904,3.2982,3.3064,3.3128,3.3194,3.3257,3.3302,3.3325,3.339,3.3485,3.3543,3.3658,3.375,3.3837,3.3875,3.3862,3.3863,3.3887,3.3886,3.3873,3.3881,3.3619,3.3857,3.3856,3.3854,3.3853,3.3853,3.304,3.3111,3.3172,3.3259,3.3307,3.3366,3.3437,3.3469,3.3549,3.3642,3.3646,3.3749,3.3813,3.3929,3.3972,3.4053,3.4027,3.4062,3.407,3.4079,3.4085,3.386,3.4069,3.4069,3.4068,3.4068,3.4068,0,3.3243,3.3281,3.3361,3.3448,3.3516,3.3496,3.3564,3.3623,3.3714,3.3774,3.3847,3.3956,3.4045,3.4091,3.4179,3.4236,3.4232,3.4259,3.4255,3.4264,3.4104,3.4074,3.426,3.426,3.426,3.426,3.426,3.426,3.3357,3.3475,3.3489,3.3631,3.3669,3.3769,3.381,3.3864,3.3911,3.4033,3.4106,3.4135,3.4189,3.4281,3.4362,3.4373,3.4406,3.4436,3.4444,3.4295,3.4275,3.4256,3.4228,3.4443,3.4444,3.4597,3.4598,3.4599]},{"header":{"parameterUnit":"m.s-1","parameterCategory":1,"la1":30.2991,"la2":30.254,"lo1":-89.0895,"lo2":-89.0444,"dy":0.0017,"dx":0.0017,"nx":28,"ny":28,"refTime":"2025-07-11T21:00:00:Z","depth":0,"parameterNumber":3,"parameterNumberName":"V-component_of_WINDS"},"data":[0,0,0,0,0,0,0,0,0,0,0,0,0,0,0,0,0,0,0,0,0,0,0,0,0,0,0,0,0,0,0,0,0,0,0,0,0,0,0,0,0,0,0,0,0,0,0,0,0,0,0,0,0,0,0,0,0,0,-0.8158,-0.8159,0,-0.8195,-0.8196,-0.8196,-0.8225,-0.8225,-0.8225,-0.8226,-0.8262,-0.8263,-0.8264,0,0,0,0,0,0,0,0,0,0,0,0,0,-0.8111,-0.8112,-0.8158,-0.8159,-0.8159,-0.8195,-0.8196,-0.8196,-0.8225,-0.8225,-0.8226,-0.8226,-0.8262,-0.8263,-0.8264,0,0,0,0,0,0,0,0,0,0,0,0,0,-0.8138,-0.8112,-0.8158,-0.8178,-0.818,-0.8195,-0.8196,-0.8197,-0.8225,-0.8225,-0.8226,-0.8226,-0.8262,-0.8263,-0.8264,-0.8262,0,0,-0.8267,-0.8268,0,0,0,0,0,0,0,0,-0.8137,-0.814,-0.8175,-0.8177,-0.8179,-0.8206,-0.8193,-0.8219,-0.8225,-0.8208,-0.8226,-0.8226,-0.8243,-0.8246,-0.8252,-0.8264,-0.8266,-0.8267,-0.8268,-0.8269,-0.8269,0,0,0,0,0,0,0,-0.8135,-0.8139,-0.8173,-0.8175,-0.8178,-0.8185,-0.8189,-0.8198,-0.8223,-0.8209,-0.8211,-0.8215,-0.8245,-0.8251,-0.8253,-0.8266,-0.8267,-0.8268,-0.8269,-0.8269,-0.8279,-0.8278,0,0,0,0,0,0,-0.813,-0.8137,-0.8172,-0.8174,-0.8159,-0.8185,-0.819,-0.8197,-0.8223,-0.8227,-0.8215,-0.8217,-0.8249,-0.8252,-0.8254,-0.8254,-0.8269,-0.827,-0.827,-0.8279,-0.8279,-0.8278,0,0,0,0,0,0,-0.8129,-0.8133,-0.817,-0.8156,-0.8161,-0.8185,-0.8193,-0.8197,-0.8204,-0.8227,-0.8232,-0.8217,-0.8249,-0.8253,-0.826,-0.8255,-0.827,-0.8271,-0.828,-0.8279,-0.8278,-0.8253,0,0,0,0,0,0,-0.8128,-0.8132,-0.8132,-0.8156,-0.8162,-0.8176,-0.8193,-0.8198,-0.8206,-0.8208,-0.823,-0.8234,-0.825,-0.8258,-0.8261,-0.8257,-0.8272,-0.828,-0.8279,-0.8279,-0.8254,-0.8251,-0.8249,0,0,0,0,0,-0.8126,-0.8123,-0.8132,-0.8136,-0.8163,-0.8176,-0.8179,-0.8197,-0.8205,-0.8205,-0.822,-0.8233,-0.8256,-0.8259,-0.8262,-0.8258,-0.828,-0.8279,-0.8279,-0.8255,-0.8252,-0.8249,0,0,0,0,0,0,-0.8098,-0.8127,-0.8137,-0.8142,-0.8156,-0.818,-0.8181,-0.8193,-0.8205,-0.8207,-0.8229,-0.8234,-0.8238,-0.8249,-0.8253,-0.8258,-0.827,-0.8269,-0.8251,-0.8248,-0.8245,-0.8242,-0.8273,0,0,0,0,0,-0.8093,-0.8101,-0.8126,-0.8128,-0.8135,-0.8156,-0.8163,-0.8176,-0.8191,-0.8197,-0.8213,-0.8227,-0.8237,-0.8243,-0.8254,-0.8256,-0.8261,-0.8255,-0.8252,-0.825,-0.8249,-0.8251,-0.8248,-0.8275,-0.8275,-0.8275,0,0,-0.8082,-0.8098,-0.8102,-0.8123,-0.8136,-0.8143,-0.8161,-0.8169,-0.8175,-0.8198,-0.8206,-0.8218,-0.8235,-0.824,-0.8242,-0.8249,-0.8243,-0.8249,-0.8247,-0.8247,-0.825,-0.8247,-0.8245,-0.8274,-0.8275,-0.8275,0,0,-0.8065,-0.8079,-0.8082,-0.8094,-0.8113,-0.8127,-0.8128,-0.815,-0.8159,-0.8168,-0.8185,-0.8192,-0.821,-0.8221,-0.8229,-0.8217,-0.8229,-0.8219,-0.8206,-0.8207,-0.8205,-0.8203,-0.8198,-0.8196,-0.8219,-0.8219,-0.8219,0,-0.8049,-0.8062,-0.8082,-0.8089,-0.8097,-0.8119,-0.8122,-0.8133,-0.8154,-0.8159,-0.8166,-0.8188,-0.8201,-0.8208,-0.8205,-0.8211,-0.8212,-0.8217,-0.8203,-0.8202,-0.82,-0.8196,-0.8194,-0.8217,-0.8218,-0.8218,-0.8218,0,-0.804,-0.8049,-0.8049,-0.8069,-0.8077,-0.8082,-0.8103,-0.8109,-0.8121,-0.8135,-0.8143,-0.8159,-0.8174,-0.8177,-0.8189,-0.8185,-0.8189,-0.8199,-0.8211,-0.8196,-0.8192,-0.8191,-0.8215,-0.8216,-0.8216,-0.8217,0,0,-0.8007,-0.8038,-0.8038,-0.8047,-0.8069,-0.8076,-0.8082,-0.8096,-0.81,-0.8114,-0.8119,-0.8133,-0.8143,-0.8152,-0.8166,-0.8167,-0.8155,-0.8177,-0.8178,-0.8172,-0.8152,-0.8143,-0.8141,-0.8164,-0.8164,-0.8163,-0.815,0,-0.7993,-0.8005,-0.8023,-0.8028,-0.8036,-0.8057,-0.8062,-0.8076,-0.8089,-0.8097,-0.8111,-0.8121,-0.8134,-0.8139,-0.8141,-0.8156,-0.8151,-0.8157,-0.8168,-0.8168,-0.8162,-0.8139,-0.8129,-0.8116,-0.8149,-0.8148,-0.8148,0,-0.7979,-0.7991,-0.7997,-0.8019,-0.8023,-0.8027,-0.8041,-0.8049,-0.8065,-0.8074,-0.8084,-0.8099,-0.8106,-0.8117,-0.8126,-0.813,-0.8136,-0.8143,-0.8143,-0.8144,-0.8156,-0.8138,-0.8112,-0.811,-0.8146,-0.8146,-0.8146,0,-0.7952,-0.7971,-0.7977,-0.7984,-0.801,-0.8012,-0.8022,-0.8039,-0.8046,-0.8059,-0.8064,-0.8077,-0.8083,-0.8093,-0.8111,-0.8118,-0.8118,-0.8131,-0.8125,-0.8124,-0.8123,-0.8123,-0.8097,-0.8128,-0.8128,-0.8128,-0.8128,0,-0.7935,-0.7937,-0.7966,-0.7969,-0.7973,-0.7994,-0.7997,-0.8009,-0.8024,-0.803,-0.8049,-0.8054,-0.8078,-0.8086,-0.81,-0.8105,-0.8108,-0.8115,-0.8119,-0.8113,-0.8112,-0.8116,-0.8117,-0.8128,-0.8128,-0.8128,-0.8128,0,-0.7906,-0.7925,-0.7933,-0.7956,-0.7962,-0.7963,-0.7983,-0.7987,-0.8002,-0.8009,-0.8012,-0.8034,-0.8044,-0.8063,-0.8079,-0.8088,-0.809,-0.8097,-0.8084,-0.8086,-0.8079,-0.8079,-0.8054,-0.8051,-0.8085,-0.8085,-0.8084,0,-0.7893,-0.7895,-0.7919,-0.7924,-0.7934,-0.7943,-0.7951,-0.7972,-0.7979,-0.7997,-0.7999,-0.8011,-0.8021,-0.8036,-0.8053,-0.8065,-0.8072,-0.8062,-0.8074,-0.8068,-0.8071,-0.807,-0.807,-0.8059,-0.8059,-0.8059,-0.8058,0,-0.7867,-0.7876,-0.7887,-0.79,-0.7909,-0.792,-0.7933,-0.7936,-0.796,-0.7967,-0.7978,-0.7986,-0.8002,-0.8013,-0.8027,-0.8038,-0.8052,-0.8055,-0.8054,-0.8047,-0.804,-0.8043,-0.8076,-0.8055,-0.8055,-0.8056,-0.8056,-0.8056,-0.7845,-0.7848,-0.7865,-0.7876,-0.7888,-0.7899,-0.7903,-0.7918,-0.7928,-0.7942,-0.7955,-0.7964,-0.798,-0.8001,-0.8011,-0.8018,-0.8025,-0.8024,-0.8023,-0.8023,-0.802,-0.8039,-0.8021,-0.8021,-0.8021,-0.8022,-0.8022,0,-0.782,-0.7832,-0.7841,-0.7858,-0.7867,-0.788,-0.7894,-0.79,-0.7908,-0.7922,-0.7932,-0.7944,-0.7955,-0.7973,-0.7986,-0.7988,-0.7995,-0.7991,-0.799,-0.7992,-0.8014,-0.8013,-0.7985,-0.7985,-0.7985,-0.7985,-0.7985,-0.7985,-0.7807,-0.7813,-0.7824,-0.7836,-0.7848,-0.7857,-0.7864,-0.7875,-0.7886,-0.7899,-0.7908,-0.792,-0.7935,-0.7949,-0.796,-0.7965,-0.7968,-0.7961,-0.7968,-0.7988,-0.7991,-0.7994,-0.7993,-0.7962,-0.7962,-0.7946,-0.7946,-0.7946]}]]